TimeCDT,TemperatureF,Dew PointF,Humidity,Sea Level PressureIn,VisibilityMPH,Wind Direction,Wind SpeedMPH,Gust SpeedMPH,PrecipitationIn,Events,Conditions,WindDirDegrees,DateUTC
12:15 AM,66.6,59.7,79,29.89,10.0,SE,8.1,-,N/A,,Clear,140,2013-09-28 05:15:00
12:35 AM,66.4,59.9,80,29.88,10.0,SE,8.1,-,N/A,,Clear,130,2013-09-28 05:35:00
12:55 AM,65.8,59.9,81,29.87,10.0,SE,8.1,-,N/A,,Clear,130,2013-09-28 05:55:00
1:15 AM,65.1,59.9,83,29.86,10.0,SE,5.8,-,N/A,,Clear,140,2013-09-28 06:15:00
1:35 AM,65.3,60.1,83,29.86,10.0,SE,6.9,-,N/A,,Clear,130,2013-09-28 06:35:00
1:55 AM,65.3,60.1,83,29.86,10.0,SE,9.2,-,N/A,,Clear,140,2013-09-28 06:55:00
2:15 AM,64.6,59.9,85,29.86,10.0,SE,8.1,-,N/A,,Clear,140,2013-09-28 07:15:00
2:35 AM,64.6,60.1,85,29.85,10.0,SE,9.2,-,N/A,,Clear,130,2013-09-28 07:35:00
2:55 AM,64.6,60.3,86,29.85,10.0,SE,6.9,-,N/A,,Clear,140,2013-09-28 07:55:00
3:15 AM,64.8,60.4,86,29.85,10.0,SE,8.1,-,N/A,,Clear,140,2013-09-28 08:15:00
3:35 AM,65.7,60.8,84,29.84,10.0,SSE,9.2,-,N/A,,Clear,150,2013-09-28 08:35:00
3:55 AM,65.7,60.8,84,29.84,10.0,SSE,9.2,-,N/A,,Clear,150,2013-09-28 08:55:00
4:15 AM,65.8,60.8,84,29.84,10.0,SE,9.2,-,N/A,,Clear,140,2013-09-28 09:15:00
4:35 AM,66.2,60.8,83,29.84,10.0,SSE,10.4,-,N/A,,Mostly Cloudy,150,2013-09-28 09:35:00
4:55 AM,66.6,60.8,82,29.83,10.0,SE,10.4,16.1,N/A,,Overcast,140,2013-09-28 09:55:00
5:15 AM,66.2,60.4,82,29.83,10.0,SE,9.2,-,N/A,,Scattered Clouds,140,2013-09-28 10:15:00
5:35 AM,66.2,60.3,81,29.83,10.0,SE,10.4,18.4,N/A,,Scattered Clouds,140,2013-09-28 10:35:00
5:55 AM,66.4,60.1,80,29.83,10.0,SSE,11.5,18.4,N/A,,Mostly Cloudy,150,2013-09-28 10:55:00
6:15 AM,66.7,60.1,79,29.82,10.0,SE,11.5,17.3,N/A,,Mostly Cloudy,140,2013-09-28 11:15:00
6:35 AM,66.7,60.1,79,29.82,10.0,SSE,11.5,-,N/A,,Mostly Cloudy,150,2013-09-28 11:35:00
6:55 AM,67.3,60.1,78,29.83,10.0,SSE,10.4,16.1,N/A,,Mostly Cloudy,150,2013-09-28 11:55:00
7:15 AM,65.8,61.0,84,29.85,3.0,SSE,12.7,18.4,0.10,Rain,Heavy Rain,160,2013-09-28 12:15:00
7:35 AM,64.9,61.3,88,29.84,7.0,SSE,10.4,17.3,0.15,Rain,Light Rain,160,2013-09-28 12:35:00
7:55 AM,64.6,61.7,90,29.84,5.0,SSE,10.4,16.1,0.19,Rain,Light Rain,160,2013-09-28 12:55:00
8:15 AM,64.8,61.9,90,29.84,10.0,SSE,9.2,-,N/A,,Overcast,150,2013-09-28 13:15:00
8:35 AM,64.9,62.2,91,29.84,10.0,SSE,10.4,16.1,N/A,,Overcast,160,2013-09-28 13:35:00
8:55 AM,65.3,62.6,91,29.83,10.0,SSE,11.5,16.1,N/A,,Overcast,150,2013-09-28 13:55:00
9:15 AM,65.8,62.6,89,29.83,10.0,SSE,13.8,18.4,N/A,,Overcast,150,2013-09-28 14:15:00
9:35 AM,66.6,62.6,87,29.83,10.0,SSE,13.8,19.6,N/A,,Mostly Cloudy,150,2013-09-28 14:35:00
9:55 AM,66.7,62.1,85,29.84,10.0,SSE,15.0,20.7,N/A,,Overcast,160,2013-09-28 14:55:00
10:15 AM,67.1,62.1,84,29.84,10.0,South,10.4,20.7,0.01,Rain,Light Rain,170,2013-09-28 15:15:00
10:35 AM,66.4,62.6,88,29.84,7.0,SSE,13.8,19.6,0.01,Rain,Light Rain,160,2013-09-28 15:35:00
10:55 AM,65.8,62.6,89,29.83,7.0,SSE,11.5,18.4,0.01,Rain,Light Rain,160,2013-09-28 15:55:00
11:15 AM,66.2,63.0,89,29.85,7.0,South,11.5,18.4,N/A,Rain,Light Rain,180,2013-09-28 16:15:00
11:35 AM,66.2,63.1,90,29.86,10.0,South,13.8,20.7,N/A,,Overcast,190,2013-09-28 16:35:00
11:55 AM,66.2,63.0,89,29.86,10.0,South,13.8,19.6,N/A,,Overcast,190,2013-09-28 16:55:00
12:15 PM,59.0,55.6,88,29.89,2.5,West,18.4,28.8,0.01,Rain,Rain,280,2013-09-28 17:15:00
12:35 PM,56.8,54.3,91,29.91,4.0,WNW,13.8,21.9,0.01,,Overcast,290,2013-09-28 17:35:00
12:55 PM,56.1,53.6,91,29.91,2.5,WNW,17.3,25.3,0.01,,Overcast,290,2013-09-28 17:55:00
1:15 PM,55.8,53.1,91,29.91,10.0,WNW,11.5,-,N/A,,Overcast,300,2013-09-28 18:15:00
1:35 PM,55.6,52.2,88,29.92,10.0,NW,15.0,19.6,N/A,,Overcast,310,2013-09-28 18:35:00
1:55 PM,55.4,52.0,88,29.92,7.0,WNW,9.2,-,N/A,Rain,Light Rain,290,2013-09-28 18:55:00
2:15 PM,55.9,53.1,90,29.93,7.0,WNW,10.4,-,N/A,,Overcast,300,2013-09-28 19:15:00
2:35 PM,56.3,53.4,90,29.94,10.0,WNW,11.5,-,N/A,,Overcast,290,2013-09-28 19:35:00
2:55 PM,57.2,53.2,87,29.94,10.0,WNW,11.5,-,N/A,,Overcast,300,2013-09-28 19:55:00
3:15 PM,58.1,53.1,83,29.95,10.0,WNW,9.2,18.4,N/A,,Overcast,300,2013-09-28 20:15:00
3:35 PM,58.5,52.5,81,29.95,10.0,WNW,10.4,-,N/A,,Overcast,290,2013-09-28 20:35:00
3:55 PM,59.2,52.7,79,29.96,10.0,West,10.4,-,N/A,,Mostly Cloudy,280,2013-09-28 20:55:00
4:15 PM,59.7,52.2,76,29.96,10.0,WNW,11.5,17.3,N/A,,Mostly Cloudy,290,2013-09-28 21:15:00
4:35 PM,59.5,50.9,73,29.96,10.0,WNW,11.5,-,N/A,,Mostly Cloudy,300,2013-09-28 21:35:00
4:55 PM,59.9,50.7,72,29.97,10.0,West,6.9,-,N/A,,Scattered Clouds,280,2013-09-28 21:55:00
5:15 PM,61.5,51.3,69,29.98,10.0,WNW,6.9,-,N/A,,Scattered Clouds,290,2013-09-28 22:15:00
5:35 PM,62.4,51.1,66,29.99,10.0,West,8.1,-,N/A,,Mostly Cloudy,280,2013-09-28 22:35:00
5:55 PM,61.7,50.5,67,29.99,10.0,WNW,6.9,-,N/A,,Scattered Clouds,290,2013-09-28 22:55:00
6:15 PM,61.5,51.1,69,29.99,10.0,West,4.6,-,N/A,,Scattered Clouds,260,2013-09-28 23:15:00
6:35 PM,59.9,50.5,71,30.00,10.0,WNW,3.5,-,N/A,,Scattered Clouds,290,2013-09-28 23:35:00
6:55 PM,57.6,50.5,77,30.00,10.0,Calm,Calm,-,N/A,,Clear,0,2013-09-28 23:55:00
7:15 PM,56.5,50.0,79,30.00,10.0,Calm,Calm,-,N/A,,Clear,0,2013-09-29 00:15:00
7:35 PM,56.1,49.8,79,30.00,10.0,Calm,Calm,-,N/A,,Clear,0,2013-09-29 00:35:00
7:55 PM,56.5,50.2,79,30.01,10.0,Calm,Calm,-,N/A,,Clear,0,2013-09-29 00:55:00
8:15 PM,51.6,47.7,86,30.01,10.0,Calm,Calm,-,N/A,,Clear,0,2013-09-29 01:15:00
8:35 PM,51.3,48.4,90,30.02,10.0,SW,3.5,-,N/A,,Clear,230,2013-09-29 01:35:00
8:55 PM,52.3,49.5,90,30.03,10.0,WSW,4.6,-,N/A,,Clear,240,2013-09-29 01:55:00
9:15 PM,50.9,48.4,91,30.03,10.0,WSW,4.6,-,N/A,,Clear,250,2013-09-29 02:15:00
9:35 PM,50.5,47.7,90,30.04,10.0,West,4.6,-,N/A,,Clear,270,2013-09-29 02:35:00
9:55 PM,50.4,47.7,90,30.04,10.0,West,3.5,-,N/A,,Clear,270,2013-09-29 02:55:00
10:15 PM,50.9,47.7,89,30.05,10.0,Calm,Calm,-,N/A,,Clear,0,2013-09-29 03:15:00
10:35 PM,49.5,46.4,89,30.05,10.0,WSW,3.5,-,N/A,,Clear,250,2013-09-29 03:35:00
10:55 PM,49.1,46.2,90,30.06,10.0,West,3.5,-,N/A,,Clear,260,2013-09-29 03:55:00
11:15 PM,48.4,45.1,89,30.06,10.0,West,5.8,-,N/A,,Clear,270,2013-09-29 04:15:00
11:35 PM,48.4,45.3,89,30.06,10.0,West,3.5,-,N/A,,Clear,270,2013-09-29 04:35:00
11:55 PM,48.7,45.1,87,30.07,10.0,West,3.5,-,N/A,,Clear,260,2013-09-29 04:55:00